Simultaneous Nadir Overpasses (SNOs) Predictions

Prediction of SNOs between LANDSAT-8 and METOP-A Satellite Orbit:

Table of predicted SNOs for the next 14.0 days since TLE Epoch: 5/21/2021
Index Date (LANDSAT-8) Time (LANDSAT-8) Lat,Lon (LANDSAT-8) SZA (LANDSAT-8 ) Date (METOP-A) Time (METOP-A) Lat,Lon (METOP-A) SZA (METOP-A ) Distance(km) Time Diff (sec)
1 05/22/2021 15:26:44 81.39, -7.06 63.55 05/22/2021 15:25:50 81.39, -7.03 63.53 0.58 54
2 05/22/2021 16:16:11 -81.38, 160.49 116.47 05/22/2021 16:16:30 -81.38, 160.63 116.45 2.45 19
3 05/25/2021 11:01:01 81.38, 59.31 63.02 05/25/2021 11:00:12 81.38, 59.34 63.00 0.49 49
4 05/25/2021 11:50:28 -81.38,-133.12 117.00 05/25/2021 11:50:52 -81.37,-132.98 116.98 2.34 24
5 05/28/2021 06:35:18 81.38, 125.65 62.53 05/28/2021 06:34:34 81.38, 125.68 62.52 0.89 44
6 05/28/2021 07:24:45 -81.38, -66.75 117.49 05/28/2021 07:25:14 -81.37, -66.61 117.46 2.38 29
7 05/31/2021 02:09:34 81.37,-168.04 62.08 05/31/2021 02:08:55 81.38,-167.99 62.08 1.68 39
8 05/31/2021 02:59:01 -81.37, -0.42 117.93 05/31/2021 02:59:35 -81.37, -0.26 117.90 2.66 34
9 06/02/2021 21:43:50 81.38,-101.38 61.73 06/02/2021 21:43:16 81.37,-101.29 61.72 1.79 34



Historial Predications of SNOs between LANDSAT-8 and METOP-A
